AirNav  
 
 465 users online  

MD42 Keymar Airpark
Keymar, Maryland, USA

GOING TO KEYMAR?


FAA INFORMATION EFFECTIVE 25 MARCH 2021

Location

FAA Identifier: MD42
Lat/Long: 39-37-10.3580N 077-13-38.9400W
39-37.172633N 077-13.649000W
39.6195439,-77.2274833
(estimated)
Elevation: 437 ft. / 133.2 m (surveyed)
Variation: 10W (1985)
From city: 2 miles NE of KEYMAR, MD
Time zone: UTC -4 (UTC -5 during Standard Time)
Zip code: 21757

Airport Operations

Airport use: Private use. Permission required prior to landing
Activation date: 08/1971
Control tower: no
ARTCC: WASHINGTON CENTER
FSS: LEESBURG FLIGHT SERVICE STATION
Attendance: UNATNDD
Wind indicator: yes
Segmented circle: no
Lights: FOR LIRL CALL 410-756-1724.

Airport Communications

WX AWOS-3 at DMW (10 nm E): 121.25 (410-876-1281)
WX AWOS-3 at FDK (14 nm SW): 124.875 (301-600-1457)

Nearby radio navigation aids

VOR radial/distance  VOR name  Freq  Var
EMIr311/13.7WESTMINSTER VORTAC117.9008W
FDKr037/(14.2)FREDERICK VOR109.0008W
HGRr106/(29.4)HAGERSTOWN VOR109.8007W
MRBr071/32.0MARTINSBURG VORTAC112.1007W
BALr327/37.6BALTIMORE VORTAC115.1011W
THSr126/38.3ST THOMAS VORTAC115.0007W

 
NDB name  Hdg/Dist  Freq  Var  ID
ELLICOTT325/28.937111WFND ..-. -. -..

Airport Services

Airframe service: NONE
Powerplant service: NONE

Runway Information

Runway 5/23

Dimensions: 1950 x 100 ft. / 594 x 30 m
Surface: turf
Runway edge lights: low intensity
RUNWAY 5  RUNWAY 23
Traffic pattern: rightleft
Obstructions: none20 ft. bldg, 200 ft. from runway

Airport Ownership and Management from official FAA records

Ownership: Privately-owned
Owner: DENNIS & BRENDA YOUNG
1585 FRANCIS SCOTT KEY HGWY
KEYMAR, MD 21757
Phone (410) 259-4250
Manager: DENNIS & BRENDA YOUNG
1585 FRANCIS SCOTT KEY HWY
KEYMAR, MD 21757
Phone 410-259-4250
EMERGENCY

Airport Operational Statistics

Aircraft based on the field: 13
Single engine airplanes: 10
Ultralights: 3
    

Additional Remarks

LIGHT SPORT AIRCRAFT AND ULTRALIGHT VEHICLES ON & INVOF ARPT.
FOR CD CTC POTOMAC APCH AT 866-429-5882.

Instrument Procedures

There are no published instrument procedures at MD42.

Some nearby airports with instrument procedures:

KDMW - Carroll County Regional Airport/Jack B Poage Field (10 nm E)
2W2 - Clearview Airpark (13 nm SE)
W05 - Gettysburg Regional Airport (13 nm N)
KFDK - Frederick Municipal Airport (14 nm SW)
W50 - Davis Airport (23 nm S)
 
Loc | Ops | Rwys | IFR | FBO | Links
Com | Nav | Svcs | Stats | Notes
Area around MD42 (Keymar Airpark)
 
Road maps at: MapQuest Bing Google
 
Aerial photo
No photo
 
Sectional chart

 
Airport distance calculator
Flying to Keymar Airpark? Find the distance to fly.

From to MD42

Sunrise and sunset
Times for 19-Apr-2021
 Local
(UTC-4)
 Zulu
(UTC)
Morning civil twilight05:5909:59
Sunrise06:2710:27
Sunset19:4923:49
Evening civil twilight20:1800:18

Current date and time
Zulu (UTC)  19-Apr-2021 09:49:55
Local (UTC-4)  19-Apr-2021 05:49:55
 
METAR
KDMW 
10nm E 
190935Z AUTO 00000KT 10SM CLR 07/04 A2985 RMK AO2
KFDK 
14nm SW 
190935Z AUTO 00000KT 10SM BKN100 07/06 A2986 RMK AO2
TAF
KBWI 
37nm SE 
190526Z 1906/2012 VRB03KT P6SM SCT060 BKN120 FM191400 23004KT P6SM VCSH SCT050 BKN090 FM191900 17008KT P6SM VCSH SCT050 BKN090 FM192300 VRB03KT P6SM SCT050 FM200600 23004KT P6SM FEW200
KMRB 
37nm W 
190526Z 1906/2006 VRB03KT P6SM SCT060 BKN090 FM190900 VRB03KT 5SM BR SCT070 BKN130 FM191100 VRB03KT P6SM SCT070 BKN130 FM191400 23008KT P6SM SCT050 FM192300 VRB03KT P6SM FEW050
KMDT 
41nm NE 
190520Z 1906/2006 VRB03KT P6SM BKN100
KMTN 
42nm SE 
190526Z 1906/2006 VRB03KT P6SM SCT060 BKN120 FM191500 15008KT P6SM VCSH SCT050 BKN090 FM192300 VRB03KT P6SM SCT050 AMD NOT SKED
KIAD 
42nm S 
190526Z 1906/2012 VRB03KT P6SM SCT060 BKN120 FM191400 17007KT P6SM SCT050 BKN090 FM192300 VRB03KT P6SM SCT050 FM200800 22004KT P6SM FEW200
NOTAMs
Click for the latest NOTAMs
NOTAMs are issued by the DoD/FAA and will open in a separate window not controlled by AirNav.

 

 
 

Would you like to see your business listed on this page?

 If your business provides an interesting product or service to pilots, flight crews, aircraft, or users of the Keymar Airpark, you should consider listing it here.  To start the listing process, click on the button below
 
Add a business
 

Other Pages about Keymar Airpark

Update a link
 
Copyright © AirNav, LLC. All rights reserved. Privacy Policy  Contact